Regional Weather Roundup
Issued by NWS

Home | Current Version | Previous Version | Graphics & Text | Print | Product List | Glossary On
Versions: 1 2 3 4 5 6 7 8 9 10 11 12 13 14 15 16 17 18 19 20 21 22 23 24 25 26 27 28 29 30 31 32 33 34 35 36 37 38 39 40 41 42 43 44 45 46 47 48 49 50
000
ASUS45 KABQ 052201
RWRNM
NEW MEXICO REGIONAL WEATHER ROUNDUP
NATIONAL WEATHER SERVICE ALBUQUERQUE NM
400 PM MDT SUN JUL 05 2015

NOTE: "FAIR" MEANS FEW OR NO CLOUDS BELOW 12,000 FEET AGL WITH NO
       SIGNIFICANT WEATHER OR OBSTRUCTIONS TO VISION.

      THIS PRODUCT IS RELEASED AS TWO VERSIONS.  ONE VERSION NEAR
      THE TOP OF THE HOUR CONTAINING PRELIMINARY DATA FROM ALBUQUERQUE
      AND OTHER STATIONS.  A FINAL VERSION WITH ADDITIONAL DATA IS
      ISSUED ABOUT 10 MINUTES AFTER THE HOUR.

NMZ501-503-504-510>518-052300-
NORTHWEST PLATEAU/NORTHCENTRAL MOUNTAINS

CITY           SKY/WX    TMP DP  RH WIND       PRES   REMARKS
FARMINGTON     MOSUNNY   87  50  27 NW13G20   30.06F
SANTA FE       MOSUNNY   81  49  32 W15G23    30.11F
TAOS           PTSUNNY   81  46  30 W7G16     30.16F

$$
NMZ402-403-502-505>509-052300-
WESTCENTRAL MOUNTAINS/SOUTHWEST MOUNTAINS

CITY           SKY/WX    TMP DP  RH WIND       PRES   REMARKS
GALLUP         SUNNY     84  46  26 N9        30.16F
SILVER CITY      N/A     75  57  53 N17       30.15F

$$
NMZ407-409-411-412-052300-
SOUTHERN DESERTS

CITY           SKY/WX    TMP DP  RH WIND       PRES   REMARKS
DEMING         PTSUNNY   84  60  44 W15G21    30.04F
HOLLOMAN AFB   MOSUNNY   93  53  26 S13       29.95F
ALAMOGORDO     MOSUNNY   91  52  25 SW8       29.98F
T OR C         CLOUDY    88  56  33 VRB3      30.02F

$$
NMZ519>523-052300-
CENTRAL VALLEYS/CENTRAL HIGHLANDS

CITY           SKY/WX    TMP DP  RH WIND       PRES   REMARKS
ALBUQUERQUE    LGT RAIN  85  51  31 NW8       30.06S
DOUBLE EAGLE   PTSUNNY   81  55  41 W13       30.11F
CLINES CORNERS CLOUDY    74  51  44 SW16      30.18S
BELEN          LGT RAIN  72  62  69 S8        30.09R
SOCORRO        NOT AVBL

$$
NMZ524>526-539-540-052300-
SOUTHCENTRAL MOUNTAINS

CITY           SKY/WX    TMP DP  RH WIND       PRES   REMARKS
RUIDOSO        NOT AVBL

$$
NMZ527>531-052300-
NORTHEAST HIGHLANDS/NORTHEAST PLAINS

CITY           SKY/WX    TMP DP  RH WIND       PRES   REMARKS
LAS VEGAS      MOSUNNY   84  48  28 SW20G28   30.13F
RATON          LGT RAIN  82  57  42 S17       30.06F
CLAYTON        MOSUNNY   91  55  29 S15G30    29.98F

$$
NMZ532>537-052300-
EASTCENTRAL PLAINS

CITY           SKY/WX    TMP DP  RH WIND       PRES   REMARKS
TUCUMCARI      MOSUNNY   97  51  21 SW14      29.93F
CANNON AFB     MOSUNNY   91  59  33 S10       29.99F
CLOVIS AIRPORT MOSUNNY   90  57  33 S15         N/A

$$
NMZ028-029-538-052300-
SOUTHEAST PLAINS

CITY           SKY/WX    TMP DP  RH WIND       PRES   REMARKS
ROSWELL        LGT RAIN  86  61  42 W14       29.95S
ARTESIA        PTSUNNY   90  61  37 W8        29.94F
CARLSBAD       PTSUNNY   95  58  28 VRB3      29.91F
HOBBS          MOSUNNY   93  54  26 S8        29.97F


$$


USA.gov is the U.S. government's official web portal to all federal, state and local government web resources and services.